Weather History for Kodiak, AK

Change the Weather History Date:

Friday, November 23, 2012

  Actual Average Record
Temperature  
Mean Temperature 33 °F 33 °F  
Max Temperature 35 °F 38 °F 49 °F (2010)
Min Temperature 30 °F 28 °F 7 °F (2005)
Degree Days  
Heating Degree Days 32 32  
Month to date heating degree days 694 704  
Since 1 July heating degree days 2708 2562  
Cooling Degree Days 0    
Month to date cooling degree days 0  
Year to date cooling degree days 0  
Moisture  
Dew Point 26 °F    
Average Humidity 0    
Maximum Humidity 0    
Minimum Humidity 0    
Precipitation  
Precipitation 0.02 in 0.24 in 1.07 in (1975)
Month to date precipitation 3.80 5.13  
Year to date precipitation 51.56 67.53  
Snow  
Snow 0.20 in 0.30 in 8.90 in (1991)
Month to date snowfall 5.5 4.0  
Since 1 July snowfall 5.9 5.1  
Since 1 September snowfall 5.9 5.1  
Snow Depth 4.00 in    
Sea Level Pressure  
Sea Level Pressure 29.52 in    
Wind  
Wind Speed 18 mph (WNW)    
Max Wind Speed 33 mph    
Max Gust Speed 38 mph    
Visibility 8 miles    
Events Rain , Snow    
T = Trace of Precipitation, MM = Missing Value Source: NWS Daily Summary

Daily Weather History Graph

Daily Weather History Graph

Search for Another Location

Airport:

Trip Planner

Search our weather history database for the weather conditions in past years. The results will help you decide how hot, cold, wet, or windy it might be!

Date:

Astronomy

Nov. 23, 2012 Rise Set
Actual Time 9:14 AM AKST 4:38 PM AKST
Civil Twilight 8:26 AM AKST 5:25 PM AKST
Nautical Twilight 7:37 AM AKST 6:15 PM AKST
Astronomical Twilight 6:50 AM AKST 7:01 PM AKST
Moon 2:43 PM AKST (11/23) 3:53 AM AKST (11/23)
Length of Visible Light 8h 58m
Length of Day
7h 24m
Waxing Gibbous, 81% of the Moon is Illuminated
Nov 23
Waxing Gibbous
Nov 28
Full
Dec 6
Last Quarter
Dec 12
New
Dec 19
First Quarter

Hourly Weather History & Observations

Time (AKST) Temp. Windchill Dew Point Humidity Pressure Visibility Wind Dir Wind Speed Gust Speed Precip Events Conditions
12:53 AM 34.0 °F 22.4 °F 17.1 °F 50% 29.37 in 10.0 mi WNW 20.7 mph 34.5 mph N/A   Scattered Clouds
1:53 AM 34.0 °F 22.4 °F 18.0 °F 52% 29.38 in 10.0 mi WNW 20.7 mph 28.8 mph N/A   Scattered Clouds
2:53 AM 35.1 °F 23.5 °F 19.9 °F 54% 29.39 in 10.0 mi WNW 21.9 mph 34.5 mph N/A   Mostly Cloudy
3:53 AM 35.1 °F 23.5 °F 21.0 °F 57% 29.40 in 10.0 mi WNW 21.9 mph 28.8 mph N/A   Mostly Cloudy
4:53 AM 35.1 °F 25.5 °F 21.0 °F 57% 29.42 in 10.0 mi NW 15.0 mph 23.0 mph N/A   Mostly Cloudy
5:53 AM 35.1 °F 25.2 °F 21.9 °F 59% 29.43 in 10.0 mi WNW 16.1 mph 24.2 mph N/A   Overcast
6:53 AM 34.0 °F 23.0 °F 21.9 °F 61% 29.45 in 10.0 mi NW 18.4 mph 23.0 mph N/A   Overcast
7:53 AM 33.1 °F 25.5 °F 23.0 °F 66% 29.47 in 10.0 mi WNW 9.2 mph 16.1 mph N/A   Overcast
8:53 AM 32.0 °F 22.1 °F 27.0 °F 82% 29.50 in 4.0 mi WNW 13.8 mph 18.4 mph 0.00 in Snow Light Snow
9:53 AM 30.9 °F 21.2 °F 27.0 °F 85% 29.52 in 2.0 mi WNW 12.7 mph 24.2 mph 0.00 in Snow Light Snow
10:20 AM 30.2 °F 19.8 °F 28.4 °F 93% 29.52 in 1.0 mi WNW 13.8 mph 23.0 mph 0.01 in Snow Light Snow
10:37 AM 30.2 °F 17.4 °F 28.4 °F 93% 29.52 in 2.0 mi WNW 20.7 mph 29.9 mph 0.01 in Snow Light Snow
10:49 AM 30.2 °F 18.1 °F 28.4 °F 93% 29.52 in 3.0 mi WNW 18.4 mph 32.2 mph 0.01 in Snow Light Snow
10:53 AM 30.9 °F 18.7 °F 28.0 °F 89% 29.53 in 3.0 mi NW 19.6 mph 32.2 mph 0.01 in Snow Light Snow
11:53 AM 30.9 °F 17.8 °F 28.0 °F 89% 29.54 in 5.0 mi WNW 23.0 mph 31.1 mph 0.01 in Snow Light Snow
12:53 PM 32.0 °F 20.1 °F 28.0 °F 85% 29.55 in 7.0 mi WNW 19.6 mph 32.2 mph 0.00 in Snow Light Snow
1:53 PM 33.1 °F 22.2 °F 27.0 °F 78% 29.56 in 7.0 mi WNW 17.3 mph 25.3 mph 0.00 in Snow Light Snow
2:53 PM 33.1 °F 21.5 °F 27.0 °F 78% 29.56 in 10.0 mi WNW 19.6 mph 26.5 mph 0.00 in   Overcast
3:53 PM 33.1 °F 21.2 °F 27.0 °F 78% 29.58 in 10.0 mi WNW 20.7 mph 25.3 mph 0.00 in   Overcast
4:53 PM 34.0 °F 24.2 °F 28.0 °F 79% 29.58 in 10.0 mi WNW 15.0 mph 24.2 mph N/A   Overcast
5:53 PM 34.0 °F 23.0 °F 28.0 °F 79% 29.59 in 10.0 mi WNW 18.4 mph - N/A   Overcast
6:03 PM 33.8 °F 22.8 °F 28.4 °F 81% 29.59 in 10.0 mi WNW 18.4 mph 24.2 mph N/A   Overcast
6:53 PM 34.0 °F 23.4 °F 28.0 °F 79% 29.60 in 10.0 mi NW 17.3 mph 21.9 mph 0.00 in   Overcast
7:53 PM 34.0 °F 25.5 °F 30.0 °F 85% 29.61 in 10.0 mi NW 11.5 mph - N/A   Overcast
8:53 PM 35.1 °F 25.9 °F 28.9 °F 78% 29.62 in 10.0 mi NW 13.8 mph 18.4 mph N/A   Overcast
9:53 PM 34.0 °F 26.0 °F 30.0 °F 85% 29.63 in 10.0 mi NNW 10.4 mph - 0.00 in   Overcast
10:53 PM 35.1 °F 26.4 °F 30.9 °F 85% 29.64 in 10.0 mi NW 12.7 mph - 0.00 in Rain Light Rain
11:53 PM 34.0 °F 25.5 °F 30.9 °F 89% 29.65 in 10.0 mi NW 11.5 mph - 0.02 in Rain Light Rain